Powrót do katalogu

FENGYUN 1C DEB

AktywnySSO
NORAD 30020·DEBRIS·🇨🇳 China

Wystrzelony May 10, 1999 z Taiyuan Satellite Launch Center

Loading…

Następne Przeloty (najbliższe 24 godziny)

TLE

ŚwieżeSource: Space-Track

Epoka: Sep 14, 2026, 22:51 UTC

1 30020U 99025MV  26257.95241229  .00000678  00000-0  38673-3 0  9997
2 30020  98.8521 260.0385 0182885  17.5461  12.0509 14.04880942  5349

Śledź FENGYUN 1C DEB w czasie rzeczywistym z AllMySat

Download on the App Store